Location: Napier
(39.4830°S, 176.9170°E)
Time: 03:23:10
(UTC+12:00)

Cosmos 676 Rocket - Pass Details

Date: 15 August 2020
Orbit: 754 x 784 km, 74.0° (Epoch: 19 September)

Event Time Altitude Azimuth Distance (km) Brightness Sun altitude
Rises 18:31:01 0° 201° (SSW) 3,257 7.4 -11.5°
Reaches altitude 10° 18:33:24 10° 201° (SSW) 2,328 6.7 -11.9°
Maximum altitude 18:38:42 79° 287° (WNW) 795 4.2 -12.9°
Drops below altitude 10° 18:43:57 10° 12° (NNE) 2,317 6.4 -14.0°
Sets 18:46:19 0° 13° (NNE) 3,240 7.2 -14.4°
